Вернуться в каталог

COSMOS 2298 DEB

АктивенLEO
NORAD 23433·DEBRIS·🇷🇺 Russia

Запущен Dec 20, 1994 с Plesetsk Cosmodrome

Loading…

Ближайшие Пролёты (ближайшие 24 часа)

TLE

СвежийSource: Space-Track

Эпоха: Sep 14, 2026, 20:15 UTC

1 23433U 94083C   26257.84385593  .00000626  00000-0  18631-3 0  9992
2 23433  74.0048 123.4751 0008977  53.5122  74.2946 14.45213696663055

Отслеживайте COSMOS 2298 DEB в реальном времени с AllMySat

Download on the App Store